DW8425 Weather Reports


Display with metric or nautical units.
time (UTC)temp
F
wind
direction
speed
MPH
gust
MPH
rain 1hr
in
rain 24hr
in
rain mn
in
humidity
%
barometer
mb
20260508221502 63 247 2.0 5.0 0.00 0.00 0.00 24 1011.5
20260508220000 64 313 2.0 11.0 0.00 0.00 0.00 25 1011.7
20260508214601 64 244 3.0 8.0 0.00 0.00 0.00 25 1011.8
20260508213059 64 303 1.0 9.0 0.00 0.00 0.00 24 1012.0
20260508211558 64 286 3.0 7.0 0.00 0.00 0.00 23 1011.9
20260508210059 63 311 2.0 7.0 0.00 0.00 0.00 24 1011.9
20260508204558 63 313 3.0 9.0 0.00 0.00 0.00 24 1011.9
20260508203102 64 333 1.0 8.0 0.00 0.00 0.00 24 1011.9
20260508201558 64 234 1.0 5.0 0.00 0.00 0.00 24 1012.0
20260508200109 63 336 2.0 8.0 0.00 0.00 0.00 25 1012.1
20260508194555 64 355 2.0 6.0 0.00 0.00 0.00 25 1012.0
20260508193102 63 308 2.0 6.0 0.00 0.00 0.00 24 1012.2
20260508191550 62 9 1.0 6.0 0.00 0.00 0.00 25 1012.1
20260508190047 61 329 2.0 8.0 0.00 0.00 0.00 25 1012.4
20260508184548 61 263 1.0 8.0 0.00 0.00 0.00 25 1012.4
20260508183100 61 321 1.0 6.0 0.00 0.00 0.00 28 1012.3
20260508181557 61 194 1.0 5.0 0.00 0.00 0.00 28 1012.4
20260508180042 60 164 1.0 5.0 0.00 0.00 0.00 30 1012.6
20260508174539 59 244 2.0 6.0 0.00 0.00 0.00 33 1012.7
20260508173037 58 194 1.0 8.0 0.00 0.00 0.00 33 1012.8
20260508171537 57 238 1.0 5.0 0.00 0.00 0.00 37 1012.8
20260508170032 57 213 1.0 3.0 0.00 0.00 0.00 38 1012.9
20260508164529 55 49 1.0 4.0 0.00 0.00 0.00 42 1013.0
20260508163026 53 178 2.0 4.0 0.00 0.00 0.00 46 1013.2
20260508161531 50 194 0.0 2.0 0.00 0.00 0.00 56 1013.4
20260508160017 48 186 2.0 4.0 0.00 0.00 0.00 58 1013.4
20260508154511 45 153 1.0 3.0 0.00 0.00 0.00 64 1013.5
20260508153006 42 153 1.0 3.0 0.00 0.00 0.00 71 1013.8
20260508151501 39 156 0.0 1.0 0.00 0.00 0.00 74 1013.9
20260508150001 37 156 0.0 2.0 0.00 0.00 0.00 78 1014.0
20260508144606 35 157 0.0 2.0 0.00 0.00 0.00 81 1014.1
20260508143103 33 159 0.0 2.0 0.00 0.00 0.00 85 1014.2
20260508141607 31 160 0.0 0.0 0.00 0.00 0.00 88 1014.2
20260508140105 29 156 0.0 0.0 0.00 0.00 0.00 89 1014.3
20260508134558 28 156 0.0 1.0 0.00 0.00 0.00 89 1014.2
20260508133056 27 156 0.0 0.0 0.00 0.00 0.00 89 1014.0
20260508131558 27 156 0.0 0.0 0.00 0.00 0.00 88 1013.9
20260508130053 27 156 0.0 1.0 0.00 0.00 0.00 88 1013.7
20260508124554 27 156 0.0 2.0 0.00 0.00 0.00 87 1013.5
20260508123048 27 133 0.0 0.0 0.00 0.00 0.00 87 1013.4
20260508121548 28 133 0.0 1.0 0.00 0.00 0.00 85 1013.3
20260508120044 29 134 0.0 0.0 0.00 0.00 0.00 85 1013.1
20260508114542 29 134 0.0 2.0 0.00 0.00 0.00 84 1013.2
20260508113105 30 134 0.0 0.0 0.00 0.00 0.00 85 1013.2
20260508111539 30 134 0.0 0.0 0.00 0.00 0.00 85 1013.1
20260508110037 30 134 0.0 0.0 0.00 0.00 0.00 84 1013.0
20260508104550 30 134 0.0 0.0 0.00 0.00 0.00 82 1013.0
20260508103034 31 134 0.0 0.0 0.00 0.00 0.00 81 1013.0
20260508101537 31 134 0.0 1.0 0.00 0.00 0.00 80 1012.8
20260508100036 32 134 0.0 1.0 0.00 0.00 0.00 80 1012.7
20260508094530 32 134 0.0 0.0 0.00 0.00 0.00 80 1012.7
20260508093028 32 134 0.0 5.0 0.00 0.00 0.00 78 1012.6
20260508091527 33 140 0.0 1.0 0.00 0.00 0.00 75 1012.6
20260508090028 35 134 0.0 1.0 0.00 0.00 0.00 74 1012.6
20260508084522 34 143 0.0 1.0 0.00 0.00 0.00 75 1012.6
20260508083019 34 143 0.0 1.0 0.00 0.00 0.00 75 1012.3
20260508081519 34 143 0.0 1.0 0.00 0.00 0.00 76 1012.2
20260508080022 34 143 0.0 0.0 0.00 0.00 0.00 75 1012.3
20260508074517 35 118 0.0 1.0 0.00 0.00 0.00 74 1012.1
20260508073010 36 120 0.0 2.0 0.00 0.00 0.00 69 1012.0
20260508071509 37 140 0.0 1.0 0.00 0.00 0.00 68 1011.9
20260508070005 38 140 0.0 2.0 0.00 0.00 0.00 66 1011.9
20260508064511 38 140 0.0 1.0 0.00 0.00 0.00 64 1011.9
20260508063001 38 167 1.0 4.0 0.00 0.00 0.00 64 1012.0
20260508061603 38 162 0.0 3.0 0.00 0.00 0.00 64 1011.9
20260508060059 39 117 0.0 1.0 0.00 0.00 0.00 63 1011.8
20260508054624 40 115 0.0 0.0 0.00 0.00 0.00 60 1011.8
20260508053103 41 116 0.0 1.0 0.00 0.00 0.00 59 1011.7
20260508051600 42 321 0.0 2.0 0.00 0.00 0.00 56 1011.4
20260508050057 43 138 0.0 1.0 0.00 0.00 0.00 53 1011.2
20260508044554 44 71 0.0 2.0 0.00 0.00 0.00 50 1011.1
20260508043057 45 61 0.0 1.0 0.00 0.00 0.00 49 1011.1
20260508041554 45 30 0.0 1.0 0.00 0.00 0.00 49 1010.9
20260508034553 47 36 0.0 2.0 0.00 0.00 0.00 46 1010.6
20260508033053 48 65 0.0 2.0 0.00 0.00 0.00 44 1010.5
20260508031601 49 355 0.0 1.0 0.00 0.00 0.00 43 1010.2
20260508030100 52 360 0.0 1.0 0.00 0.00 0.00 40 1010.1
20260508024553 54 355 0.0 3.0 0.00 0.00 0.00 37 1009.9
20260508023051 56 360 0.0 3.0 0.00 0.00 0.00 33 1009.7
20260508021556 57 323 1.0 4.0 0.00 0.00 0.00 31 1009.6
20260508020052 58 320 2.0 5.0 0.00 0.00 0.00 31 1009.4
20260508014551 59 309 3.0 7.0 0.00 0.00 0.00 30 1009.3
20260508013048 60 360 2.0 10.0 0.00 0.00 0.00 29 1009.3
20260508011551 60 312 3.0 7.0 0.00 0.00 0.00 29 1009.3
20260508010047 61 313 1.0 5.0 0.00 0.00 0.00 28 1009.2
20260508004547 61 261 1.0 5.0 0.00 0.00 0.00 30 1009.3
20260508003047 62 334 2.0 10.0 0.00 0.00 0.00 29 1009.3
20260508001546 63 313 1.0 9.0 0.00 0.00 0.00 28 1009.2
20260507234548 63 69 2.0 9.0 0.00 0.00 0.00 28 1009.0
20260507233044 63 355 3.0 6.0 0.00 0.00 0.00 26 1009.1
20260507231546 63 320 2.0 8.0 0.00 0.00 0.00 25 1009.1
20260507230041 63 342 2.0 8.0 0.00 0.00 0.00 28 1009.2
20260507224541 62 335 2.0 10.0 0.00 0.00 0.00 26 1009.3
20260507223039 63 340 4.0 9.0 0.00 0.00 0.00 25 1009.6